Regional Weather Roundup
Issued by NWS Midland/Odessa, TX

Skip options and go directly to product.
Home | Oldest Version | Previous Version | Current Version | All | Graphics & Text | Save Text | Print | Product List | Glossary On

Skip product version selection by date and time.   
365
ASUS44 KMAF 231502
RWRMAF
MIDLAND AREA WEATHER ROUNDUP
NATIONAL WEATHER SERVICE MIDLAND TX
900 AM CST SUN NOV 23 2014

...IN SOUTHWEST TEXAS AND SOUTHEAST NEW MEXICO...

CITY           SKY/WX    TMP DP  RH WIND       PRES   REMARKS
ALPINE         SUNNY     53  30  42 SW5       29.91S
ANDREWS        FAIR      49  25  38 W12       29.70S
ARTESIA        NOT AVBL
BIG SPRING     SUNNY     54  35  48 SW8       29.69R
CARLSBAD       SUNNY     61  20  20 W32G45    29.71S
DRYDEN           N/A     65  35  33 W20G26    29.73R
FORT STOCKTON  SUNNY     58  32  37 W13       29.78R
GUAD PASS      NOT AVBL
HOBBS          SUNNY     54  19  26 W21G28    29.73R
MARFA          SUNNY     54  28  37 W23G30    29.87S
MIDLAND AIRPK  SUNNY     55  30  39 W9        29.70R
MIDLAND INTL   SUNNY     56  28  34 MISG      29.71R
ODESSA         SUNNY     56  24  29 W15       29.72R
PECOS          SUNNY     58  29  33 W17       29.75S
PRESIDIO       FAIR      53  37  55 NE3       29.88S
SEMINOLE       SUNNY     50  23  34 W14       29.70R
SNYDER         SUNNY     45  38  76 SW13      29.60S WCI  39
WINK           SUNNY     61  21  21 W18G28    29.72R
$$
...OTHER STATIONS IN TEXAS...

CITY           SKY/WX    TMP DP  RH WIND       PRES   REMARKS
ABILENE        SUNNY     56  42  59 SW9       29.59S
AMARILLO       SUNNY     52  26  36 N24G39    29.59R
AUSTIN         MOSUNNY   61  56  83 SW10      29.66S
BROWNSVILLE    FOG       66  65  96 SW7       29.80R VSB 1/4
CORPUS CHRISTI MOSUNNY   61  60  97 SW10      29.76R
DALLAS FTW     MOSUNNY   58  53  84 S18       29.54F
DEL RIO        SUNNY     54  50  86 CALM      29.73R
EL PASO        PTSUNNY   56  23  27 W26G41    29.91R
HOUSTON INT    MOSUNNY   64  59  83 W9        29.67R
LUBBOCK        MOSUNNY   57  21  24 W29G39    29.57F
SAN ANGELO     SUNNY     57  40  52 SW14      29.67S
SAN ANTONIO    SUNNY     61  52  72 W8        29.71S
WACO           SUNNY     58  56  93 S13       29.62S
WICHITA FALLS  NOT AVBL
$$
...OTHER LOCATIONS IN NEW MEXICO...

CITY           SKY/WX    TMP DP  RH WIND       PRES   REMARKS
ALAMAGORDO     MOSUNNY   45  23  42 SE9       29.87R WCI  40
ALBUQUERQUE    MOSUNNY   44  24  45 NW26G32   29.88R WCI  35
CANNON AFB     SUNNY     49  19  30 W22       29.66F
CLOVIS         SUNNY     52  19  28 W31G40    29.62S
HOLLOMAN AFB   MOSUNNY   43  18  36 SE7       29.86R WCI  39
ROSWELL        SUNNY     56  19  23 CALM      29.72R
RUIDOSO        MOSUNNY   43  18  36 W26G37    29.83S WCI  33
SANTA FE       MOSUNNY   38  21  50 SW8       29.78R WCI  32
TRUTH OR CONSE SUNNY     44  20  38 CALM      29.88R
TUCUMCARI        N/A     52  22  30 W15G29    29.61R
$$

USA.gov is the U.S. government's official web portal to all federal, state and local government web resources and services.